Regional Weather Roundup
Issued by NWS Northern Indiana

Home | Current Version | Previous Version | Graphics & Text | Print | Product List | Glossary On
Versions: 1 2 3 4 5 6 7 8 9 10 11 12 13 14 15 16 17 18 19 20 21 22 23 24 25 26 27 28 29 30 31 32 33 34 35 36 37 38 39 40 41 42 43 44 45 46 47 48 49 50
000
ASUS43 KIWX 211410
RWRIWX

KIWX WEATHER ROUNDUP
NATIONAL WEATHER SERVICE NORTHERN INDIANA
1000 AM EDT SUN SEP 21 2014

NOTE: "FAIR" INDICATES FEW OR NO CLOUDS BELOW 12,000 FEET WITH NO
SIGNIFICANT WEATHER AND/OR OBSTRUCTIONS TO VISIBILITY.

* THESE STATIONS ARE NOT UNDER NWS QUALITY CONTROL. THEY ALSO MAY NOT
  REPORT WEATHER SUCH AS PRECIPITATION OR FOG.

INZ001>027-211500-
NORTHERN INDIANA

CITY           SKY/WX    TMP DP  RH WIND       PRES   REMARKS
GARY*          MOSUNNY   63  52  67 W20       29.83R
VALPARAISO     MOSUNNY   60  52  74 W18G24    29.82S
MICHIGAN CITY* CLOUDY    59  50  72 W17G31    29.81R
LAPORTE*       PTSUNNY   60  51  73 NW12G24   29.81R
KNOX*          MOSUNNY   60  53  75 W17       29.81S
SOUTH BEND     PTSUNNY   63  51  65 W26G33    29.79S
ELKHART*       PTSUNNY   63  50  63 W15G26    29.78S
GOSHEN         MOSUNNY  N/A N/A N/A W13       29.78S
MONTICELLO*    SUNNY     62  55  77 W12G18    29.85F
LOGANSPORT*    SUNNY     61  54  77 W13G20    29.86S
ROCHESTER*     SUNNY     64  54  68 W13G23    29.82F
WARSAW*        MOSUNNY   61  54  77 W14G23    29.80S
ANGOLA*        PTSUNNY   63  54  72 NW17      29.76S
FORT WAYNE     PTSUNNY   63  56  78 W17       29.81R
HUNTINGTON*    MOSUNNY   62  55  78 W14G22    29.82R
PERU/GRISSOM   SUNNY     62  58  87 W16       29.84F
MARION*        SUNNY     63  53  70 W13G21    29.85S

$$
INZ028>050-211500-
CENTRAL INDIANA

CITY           SKY/WX    TMP DP  RH WIND       PRES   REMARKS
LAFAYETTE      SUNNY     61  55  81 W10       29.88S
KOKOMO*        SUNNY     63  54  72 W18G24    29.85F
MUNCIE*        SUNNY     65  53  65 NW14G22   29.85S
INDIANAPOLIS   MOSUNNY   65  54  67 NW13      29.89R

$$
MIZ043>046-050>051-056>058-064>065-071>073-077>080-211500-
SOUTHWEST LOWER MICHIGAN

CITY           SKY/WX    TMP DP  RH WIND       PRES   REMARKS
BATTLE CREEK   CLOUDY    60  51  72 W14G23    29.73R
BENTON HARBOR  CLOUDY    59  51  75 W23G33    29.77R
COLDWATER*     CLOUDY    62  53  73 W15G28    29.75R
HILLSDALE*     PTSUNNY   63  56  78 W14G20    29.73S
HOLLAND        CLOUDY    61  52  72 W16G29    29.72R
GRAND RAPIDS   CLOUDY    60  54  80 W15       29.69R
KALAMAZOO      PTSUNNY   61  52  72 W13G23    29.74R
STURGIS*       PTSUNNY   61  54  77 W12G22    29.76R
THREE RIVERS*  PTSUNNY   62  53  74 W15G22    29.76R

$$
OHZ001>008-015>018-024>025-211500-
NORTHWEST OHIO

CITY           SKY/WX    TMP DP  RH WIND       PRES   REMARKS
WAUSEON*       FAIR      66  55  68 W17G25    29.73S
DEFIANCE       MOSUNNY  N/A N/A N/A W13G25    29.76R
FINDLAY        MOSUNNY   69  59  70 W18G26    29.75R
TOLEDO EXPRESS PTSUNNY   66  58  75 W18G26    29.72R
TOLEDO METCALF PTSUNNY   67  57  70 W23G31    29.72R
LIMA           MOSUNNY   69  61  75 W21G41    29.79R

$$
AND FOR LAKE MICHIGAN COASTAL AND OPEN LAKE BUOY OBSERVATIONS

STATION/POSITION TEMP    WIND        PRES    VSBY  WAVE
                 AIR SEA DIR/SP/G                  HT/PER
                 (F)     (DEG/KT/KT) (MB)    (MI)  (FT/S)
CALUMET HARBOR    61     270/  6/ 14 1008.8R
MICHIGAN CITY     60     250/ 30/ 36   N/A
SAINT JOSEPH      62     250/ 20/ 28 1008.8S
SOUTH LAKE BUOY   59 63  270/ 21/ 27 1007.0R         5/ 5
4 MI NW BRIDGMAN  61 65  270/ 23/ 31   N/A           8/ 6
MICHIGAN CITY     61 65  290/ 21/ 29   N/A           8/ 5

$$
&&


USA.gov is the U.S. government's official web portal to all federal, state and local government web resources and services.